User: anonymous   Login
Location: Unspecified
(0.0000°N, 0.0000°E)
Time: 01:48:42
(UTC+00:00)
Language:

APRIZESAT 4 - Orbit

View from above orbital plane
View from above orbital plane
View from above satellite
View from above satellite

Ground track
Ground track

The orbit data is extracted from the following two-line orbital elements,

1 35684U 09041D   18323.86043579  .00000040  00000-0  12968-4 0  9993
2 35684  98.1951 278.7126 0046319 220.7089 139.0657 14.79167318502099
Epoch (UTC): 19 November 2018 20:39:01
Eccentricity: 0.0046319
inclination: 98.1951°
perigee height: 599 km
apogee height: 664 km
right ascension of ascending node: 278.7126°
argument of perigee: 220.7089°
revolutions per day: 14.79167318
mean anomaly at epoch: 139.0657°
orbit number at epoch: 50209

The dashed part of the orbit path shows where the satellite is in the earth's shadow,  

DLR